EW7548 Weather Reports


time (UTC)temp
C
wind
direction
speed
KPH
gust
KPH
rain 1hr
cm
rain 24hr
cm
rain mn
cm
humidity
%
barometer
mb
20260906144537 21 162 12.9 20.9 0.00 0.00 0.00 93 1018.1
20260906143036 20 141 11.3 19.3 0.00 0.00 0.00 95 1017.9
20260906141531 20 126 14.5 20.9 0.00 0.00 0.00 95 1017.8
20260906140032 20 137 11.3 17.7 0.00 0.00 0.00 95 1017.8
20260906134526 19 137 11.3 17.7 0.00 0.00 0.00 96 1017.8
20260906133029 19 168 11.3 17.7 0.00 0.00 0.00 96 1017.8
20260906131533 19 148 11.3 16.1 0.00 0.00 0.00 95 1017.6
20260906130018 19 134 11.3 16.1 0.00 0.00 0.00 95 1017.7
20260906124516 19 155 9.7 14.5 0.00 0.00 0.00 95 1017.6
20260906123014 19 136 4.8 11.3 0.00 0.00 0.00 95 1017.7
20260906121512 19 132 4.8 11.3 0.00 0.00 0.00 95 1017.5
20260906120009 19 130 6.4 16.1 0.00 0.00 0.00 95 1017.3
20260906114507 19 169 9.7 16.1 0.00 0.00 0.00 95 1016.9
20260906113006 19 142 9.7 16.1 0.00 0.00 0.00 95 1017.1
20260906111505 18 134 9.7 14.5 0.00 0.00 0.00 95 1017.2
20260906110003 18 123 8.0 16.1 0.00 0.00 0.00 95 1016.8
20260906104600 18 134 3.2 12.9 0.00 0.00 0.00 95 1016.6
20260906103059 18 110 3.2 11.3 0.00 0.00 0.00 95 1016.4
20260906101557 18 126 0.0 4.8 0.00 0.00 0.00 94 1016.4
20260906100056 18 136 3.2 8.0 0.00 0.00 0.00 94 1016.1
20260906094555 18 132 0.0 3.2 0.00 0.00 0.00 94 1016.1
20260906093055 19 122 0.0 4.8 0.00 0.00 0.00 94 1016.1
20260906091553 19 130 1.6 14.5 0.00 0.00 0.00 94 1015.8
20260906090056 19 124 4.8 14.5 0.00 0.00 0.00 94 1015.5
20260906084554 18 119 0.0 3.2 0.00 0.00 0.00 94 1015.5
20260906083053 18 128 0.0 3.2 0.00 0.00 0.00 93 1015.7
20260906081547 19 131 0.0 0.0 0.00 0.00 0.00 93 1016.0
20260906080049 19 131 0.0 1.6 0.00 0.00 0.00 93 1016.0
20260906074545 19 131 0.0 3.2 0.00 0.00 0.00 93 1016.0
20260906073045 19 131 0.0 3.2 0.00 0.00 0.00 93 1016.0
20260906071556 20 135 0.0 4.8 0.00 0.00 0.00 93 1016.0
20260906070145 20 147 1.6 4.8 0.00 0.00 0.00 93 1015.9
20260906064541 19 134 0.0 4.8 0.00 0.00 0.00 93 1016.0
20260906063039 19 136 0.0 1.6 0.00 0.00 0.00 92 1016.2
20260906061538 19 136 0.0 1.6 0.00 0.00 0.00 92 1016.2
20260906060037 19 136 0.0 0.0 0.00 0.00 0.00 92 1016.2
20260906054537 20 136 0.0 3.2 0.00 0.00 0.00 91 1016.2
20260906053034 20 136 0.0 0.0 0.00 0.00 0.00 92 1016.3
20260906051532 20 136 0.0 0.0 0.00 0.00 0.00 91 1016.3
20260906050031 20 136 0.0 0.0 0.00 0.00 0.00 91 1016.3
20260906044528 20 136 0.0 0.0 0.00 0.00 0.00 91 1016.3
20260906043030 21 136 0.0 0.0 0.00 0.00 0.00 90 1016.3
20260906041527 21 136 0.0 0.0 0.00 0.00 0.00 90 1016.2
20260906040030 21 136 0.0 0.0 0.00 0.00 0.00 90 1016.3
20260906034535 21 136 0.0 0.0 0.00 0.00 0.00 90 1016.3
20260906033028 21 136 0.0 0.0 0.00 0.00 0.00 90 1016.2
20260906031523 21 136 1.6 3.2 0.00 0.00 0.00 90 1016.0
20260906030021 21 144 1.6 4.8 0.00 0.00 0.00 90 1015.9
20260906024520 21 142 0.0 0.0 0.00 0.00 0.00 89 1015.8
20260906023019 21 142 0.0 0.0 0.00 0.00 0.00 89 1015.5
20260906021520 22 142 0.0 3.2 0.00 0.00 0.00 89 1015.1
20260906020018 22 145 0.0 3.2 0.00 0.00 0.00 88 1014.8
20260906014529 22 135 0.0 3.2 0.00 0.00 0.00 88 1014.8
20260906013017 22 135 0.0 3.2 0.00 0.00 0.00 88 1014.6
20260906011531 22 137 0.0 3.2 0.00 0.00 0.00 87 1014.3
20260906010016 23 148 0.0 3.2 0.00 0.00 0.00 85 1014.1
20260906004529 23 150 0.0 1.6 0.00 0.00 0.00 84 1013.8
20260906003020 24 150 0.0 1.6 0.00 0.00 0.00 83 1013.8
20260906001512 24 150 0.0 4.8 0.00 0.00 0.00 83 1013.9
20260906000013 24 148 1.6 4.8 0.00 0.00 0.00 82 1014.0
20260905234511 24 131 1.6 8.0 0.00 0.00 0.00 82 1013.7
20260905233011 25 140 1.6 4.8 0.00 0.00 0.00 81 1013.7
20260905231511 24 110 0.0 3.2 0.00 0.00 0.00 82 1013.4
20260905230015 24 80 0.0 3.2 0.00 0.00 0.00 82 1013.2
20260905224522 24 99 0.0 3.2 0.00 0.00 0.00 81 1013.1
20260905223009 25 85 0.0 4.8 0.00 0.00 0.00 81 1013.1
20260905221508 25 94 0.0 4.8 0.00 0.00 0.00 82 1013.2
20260905220007 25 76 1.6 6.4 0.00 0.00 0.00 81 1013.1
20260905214506 25 72 3.2 9.7 0.00 0.00 0.00 80 1013.3
20260905213006 25 71 1.6 9.7 0.00 0.00 0.00 79 1013.5
20260905211505 26 68 4.8 8.0 0.00 0.00 0.00 78 1013.4
20260905210010 26 78 0.0 4.8 0.00 0.00 0.00 77 1013.6
20260905204503 27 73 1.6 3.2 0.00 0.00 0.00 76 1013.9
20260905203004 27 74 1.6 3.2 0.00 0.00 0.00 74 1014.3
20260905201503 27 79 0.0 4.8 0.00 0.00 0.00 74 1014.3
20260905200002 27 115 0.0 3.2 0.00 0.00 0.00 75 1014.5
20260905194502 27 136 0.0 8.0 0.00 0.00 0.00 74 1014.6
20260905193001 28 47 0.0 6.4 0.00 0.00 0.00 72 1014.7
20260905191600 28 120 1.6 8.0 0.00 0.00 0.00 74 1014.5
20260905190100 27 142 6.4 17.7 0.00 0.00 0.00 74 1014.4
20260905184552 27 182 0.0 3.2 0.00 0.00 0.00 76 1014.8
20260905183055 26 19 0.0 1.6 0.00 0.00 0.00 78 1015.1
20260905181548 26 123 0.0 3.2 0.00 0.00 0.00 79 1015.4
20260905180046 26 190 0.0 4.8 0.00 0.00 0.00 79 1015.3
20260905174543 25 45 0.0 3.2 0.00 0.00 0.00 83 1015.4
20260905173040 25 15 0.0 3.2 0.00 0.00 0.00 83 1015.6
20260905171538 24 133 0.0 4.8 0.00 0.00 0.00 84 1015.7
20260905170046 24 98 0.0 3.2 0.00 0.00 0.00 86 1015.7
20260905164533 24 73 0.0 3.2 0.00 0.00 0.00 86 1015.4
20260905163028 23 77 0.0 3.2 0.00 0.00 0.00 88 1015.3
20260905161524 23 68 0.0 3.2 0.00 0.00 0.00 89 1015.5
20260905160037 23 64 0.0 3.2 0.00 0.00 0.00 90 1015.3
20260905154520 22 35 0.0 3.2 0.00 0.00 0.00 90 1015.2
20260905153020 22 61 1.6 3.2 0.00 0.00 0.00 91 1015.2
20260905151518 22 50 0.0 3.2 0.00 0.00 0.00 91 1015.1
20260905150016 22 63 0.0 1.6 0.00 0.00 0.00 93 1014.9